Vertical_Velocity
-1 -1 -0 0 -0 1 1 -0 -2 -1 -0 3 1 -3 0 -0 2 0 1 3 3 -4 0 -1 -0 -2 -2 2 -2 -8 -10 6 9 2 5 -5 1 2 -4 6 -2 -0 -6 4 19
-0 0 0 1 1 -1 -1 1 0 -0 -0 -1 -0 -1 -2 -2 -0 7 1 2 -4 3 3 -3 5 -4 -4 0 2 -9 -11 10 13 -4 1 -3 7 3 -8 6 -2 -4 -6 8 0
-2 -3 -2 -0 -2 -1 -2 -2 -1 -2 -1 0 -1 2 4 -2 8 8 -8 -3 -1 -3 -2 3 -2 -4 -0 3 1 0 1 5 3 -2 -1 0 -1 0 -5 5 7 -5 -13 8 -2
-1 0 1 2 -1 -1 -1 -1 -0 2 0 -1 -1 -4 -1 10 -3 8 11 -1 -2 2 2 -2 -1 -6 -1 -13 7 -15 -1 -2 10 -3 -3 2 -5 2 -8 13 -1 -4 8 -11 3
-1 -2 0 -1 -2 -3 -4 -2 -1 2 -3 -5 -3 -4 -6 26 9 -20 4 5 -0 -0 -1 1 -6 3 -1 9 -11 -27 16 1 5 -5 -4 -5 -2 -0 -1 5 0 -7 4 -14 10
0 -3 -2 -2 4 0 -1 -6 -6 5 2 -1 -4 -9 -12 43 -6 6 -1 3 5 4 7 2 -7 2 -15 -3 -16 13 -4 -1 -5 5 -5 -9 1 -19 17 6 4 -9 5 -4 -3
1 -2 -5 -4 2 6 1 -2 -4 1 -0 -3 -5 -15 -16 21 -10 -1 2 3 -1 1 6 4 3 -12 22 -2 15 -7 -24 -7 -5 13 -12 2 -27 -35 19 1 0 -11 -4 11 -12
1 -1 -5 -1 -3 0 1 4 -6 1 3 -2 -4 -8 1 -13 1 13 -5 6 5 -7 -2 11 12 -3 -9 20 -20 -12 -10 -19 32 6 25 -2 -46 8 4 -6 4 3 -5 -4 5
-1 1 -5 -4 0 2 -0 -4 -4 9 8 -2 -4 -4 5 -7 2 2 5 7 3 -0 2 0 12 3 6 -15 2 -7 -50 -14 39 4 9 -8 -3 8 -10 0 7 7 -6 -3 0
0 -2 2 -7 -8 -5 -4 -5 15 6 11 2 -2 4 21 -6 -1 1 6 3 -2 -3 -5 1 5 7 6 -14 -58 -17 2 15 -3 11 1 -8 -18 6 20 -9 12 4 -6 -9 -4
2 -2 5 -6 -5 -6 -3 2 11 -9 24 10 13 -19 9 10 -5 7 -13 1 -16 -6 -4 13 8 -27 -6 7 28 19 10 -4 -10 27 17 -13 -4 -8 17 -13 -9 10 -1 -10 -10
-3 -2 1 3 -5 -5 -9 -8 -14 -24 -16 -2 -6 0 2 -3 0 33 -17 -6 -1 -3 6 2 -26 -6 26 21 26 5 5 -8 8 11 17 -11 -16 14 -0 -1 -0 2 -1 -4 -3
-2 1 -9 10 -6 -3 -5 -5 -7 -17 2 -2 -10 -1 0 1 10 -18 8 15 -2 7 21 -1 -24 35 14 4 9 4 3 4 -6 20 -0 11 -23 -13 4 -2 4 -6 4 -6 -5
-2 1 -8 -4 2 -4 -3 -3 -3 -19 -10 -23 -29 -17 -13 1 0 -5 -8 -6 15 -2 12 1 2 1 12 -5 20 3 16 1 5 17 -12 21 -40 13 -2 -6 -1 -2 -0 3 1
-3 -3 -2 -17 -10 -8 -7 -7 -1 -19 -4 -19 2 6 -1 0 -12 -0 7 6 -9 4 12 4 -9 8 6 -26 29 -32 23 7 32 49 19 6 3 -52 19 -21 -5 7 3 3 2
-5 -5 -4 4 -10 -6 -6 -13 -6 -6 -2 -3 1 -8 -3 4 5 -2 -2 8 -3 -6 12 -21 21 9 -4 9 5 -0 16 1 23 14 35 -19 -14 -12 2 -2 10 9 0 -0 -2
-6 -3 -5 -10 -2 -1 -3 -11 3 -15 -10 -15 -11 -5 1 1 -6 -6 -2 -1 -6 -11 10 -3 15 -19 12 5 13 2 3 -3 -13 1 -25 21 12 -29 2 -0 1 8 -9 -1 4
-5 -2 -5 -4 -4 -3 -1 8 2 -4 -0 5 -5 2 -5 -4 0 -6 -1 5 11 5 -2 -1 14 9 -20 10 52 4 13 -2 24 3 -21 31 -20 -32 -6 3 13 -5 -9 -8 6
-2 -1 -0 -3 -2 -11 -2 -3 -12 -5 -7 -7 0 1 -3 2 -1 -8 2 8 -2 -5 -3 -11 -2 10 23 -5 8 13 -21 -0 -3 -8 14 9 -13 3 18 8 -16 6 -3 -1 -2
-3 -6 -1 -7 -9 -7 -7 -4 -4 -4 1 3 3 3 -3 -2 -8 -2 -3 0 -3 2 -9 -2 -8 3 8 10 -7 19 36 -2 5 10 -12 -11 7 -1 1 -4 6 2 -4 -8 -4
-7 -10 -4 -6 -12 -1 -2 1 -0 4 -2 -6 -1 -2 3 1 2 -1 3 0 1 -1 -1 -4 3 8 14 6 3 22 43 11 24 -10 31 1 9 7 12 -7 -5 -0 1 1 1
-2 -2 1 -6 8 -7 -6 -8 -8 -1 1 -2 1 0 4 1 -4 -4 -1 8 0 -4 -2 3 6 -2 14 11 14 -3 9 -2 8 -2 4 7 3 5 10 -11 -6 1 -0 1 -3
-1 -4 7 -3 -17 -5 7 0 -4 -4 2 -3 2 1 0 0 -10 -1 0 3 -2 -6 -7 5 -1 -3 15 18 18 4 8 25 10 1 -5 3 20 18 7 1 2 -5 -4 1 -3
-7 -7 3 6 -4 -3 -5 -0 -5 -0 5 2 1 2 -1 -2 13 -15 -4 -4 4 -4 -2 -4 -5 0 5 5 11 7 25 14 31 -5 9 7 -1 4 4 1 -2 2 -2 -1 1
-10 -4 -17 -8 2 -1 2 -0 -1 -9 5 4 -4 3 2 -6 -2 -4 0 2 7 -2 -1 -4 -3 1 -0 6 5 -2 2 -2 8 5 2 -5 8 -8 -6 -2 1 8 7 5 5
-4 -4 3 -0 3 -4 3 3 0 0 1 -0 -1 1 1 -0 -1 -12 -4 9 -3 -0 -2 -0 -4 -2 -7 1 -1 3 -3 3 8 3 13 7 8 0 4 -5 -4 1 7 3 -0
-9 -7 -11 9 3 -5 3 2 1 -4 8 -3 -4 -7 1 2 1 -2 -0 -0 -3 -5 -3 -1 1 -5 -0 4 6 8 4 9 -7 1 -8 -6 2 -1 2 2 8 10 1 2 3
Height
5798 5794 5792 5789 5786 5783 5780 5777 5774 5770 5767 5765 5763 5761 5759 5757 5754 5752 5750 5747 5743 5741 5744 5743 5742 5740 5740 5742 5742 5742 5744 5747 5750 5751 5755 5755 5758 5761 5763 5767 5770 5771 5772 5778 5781
5793 5790 5788 5784 5780 5778 5774 5770 5767 5764 5761 5758 5755 5753 5751 5749 5749 5749 5744 5738 5735 5735 5733 5733 5734 5733 5732 5733 5733 5733 5735 5739 5743 5744 5744 5748 5750 5753 5755 5760 5763 5763 5766 5771 5773
5790 5787 5784 5780 5777 5772 5769 5766 5761 5757 5754 5750 5747 5745 5742 5739 5739 5739 5733 5731 5727 5724 5723 5723 5722 5722 5722 5722 5722 5726 5725 5730 5730 5734 5738 5738 5740 5745 5748 5751 5756 5757 5756 5763 5764
5786 5782 5779 5776 5771 5767 5764 5760 5754 5750 5747 5742 5739 5735 5732 5729 5728 5722 5721 5719 5717 5715 5712 5710 5709 5707 5708 5709 5711 5710 5715 5716 5720 5721 5726 5729 5730 5734 5739 5743 5746 5748 5750 5753 5758
5782 5778 5775 5770 5765 5761 5756 5750 5745 5741 5736 5731 5726 5723 5721 5719 5718 5707 5705 5703 5700 5701 5702 5699 5697 5694 5694 5698 5696 5696 5702 5704 5706 5707 5711 5716 5719 5722 5728 5733 5735 5738 5741 5743 5749
5777 5773 5767 5762 5758 5754 5747 5742 5737 5733 5726 5719 5714 5710 5707 5707 5698 5694 5690 5688 5685 5682 5681 5681 5682 5680 5678 5679 5678 5683 5683 5689 5692 5697 5697 5700 5704 5708 5717 5720 5725 5728 5732 5735 5736
5770 5765 5760 5754 5748 5744 5737 5731 5726 5721 5713 5707 5701 5695 5693 5692 5680 5677 5671 5668 5665 5663 5663 5660 5657 5654 5660 5660 5663 5663 5663 5668 5680 5684 5683 5684 5688 5696 5704 5709 5713 5718 5721 5725 5727
5761 5757 5750 5743 5737 5732 5727 5721 5713 5708 5701 5694 5687 5679 5677 5670 5664 5659 5652 5649 5645 5643 5642 5641 5637 5633 5632 5635 5637 5637 5640 5650 5676 5663 5670 5664 5678 5687 5688 5693 5699 5705 5709 5714 5718
5752 5747 5739 5732 5726 5721 5715 5710 5701 5695 5686 5678 5671 5663 5657 5649 5642 5635 5629 5624 5619 5618 5618 5615 5610 5608 5611 5611 5613 5612 5619 5630 5647 5641 5641 5638 5666 5670 5668 5678 5685 5692 5697 5701 5706
5742 5735 5726 5718 5712 5706 5701 5695 5689 5681 5672 5660 5652 5645 5635 5620 5614 5604 5597 5591 5588 5585 5585 5583 5577 5574 5580 5581 5573 5594 5600 5610 5614 5626 5617 5622 5647 5648 5652 5655 5668 5674 5682 5688 5694
5731 5723 5715 5705 5698 5691 5686 5680 5674 5664 5653 5637 5627 5616 5603 5590 5581 5572 5561 5560 5550 5548 5553 5551 5542 5540 5557 5561 5567 5575 5578 5584 5598 5611 5597 5608 5627 5624 5632 5637 5646 5656 5665 5672 5679
5719 5710 5701 5693 5684 5676 5666 5657 5648 5639 5635 5615 5605 5589 5573 5561 5556 5542 5530 5523 5520 5515 5518 5516 5507 5529 5537 5536 5542 5549 5554 5561 5579 5579 5576 5591 5603 5605 5610 5624 5629 5636 5646 5656 5660
5706 5697 5688 5681 5669 5660 5648 5637 5625 5613 5603 5590 5576 5561 5545 5526 5516 5506 5498 5487 5483 5485 5486 5481 5494 5502 5501 5510 5517 5524 5534 5547 5557 5565 5566 5571 5576 5581 5595 5601 5612 5619 5630 5637 5646
5694 5684 5675 5668 5657 5644 5630 5616 5602 5586 5575 5551 5539 5526 5518 5495 5486 5473 5464 5456 5462 5459 5459 5458 5473 5469 5475 5483 5497 5500 5525 5536 5544 5549 5549 5553 5557 5564 5580 5588 5594 5607 5614 5623 5631
5682 5672 5661 5647 5640 5626 5612 5597 5580 5559 5543 5529 5505 5501 5488 5473 5454 5451 5444 5436 5437 5442 5442 5447 5451 5453 5457 5466 5482 5485 5511 5519 5523 5529 5536 5540 5545 5560 5565 5573 5586 5594 5600 5608 5616
5670 5659 5648 5636 5621 5607 5591 5574 5558 5542 5521 5502 5491 5474 5464 5453 5444 5436 5431 5427 5421 5420 5425 5428 5439 5444 5453 5459 5463 5480 5489 5499 5508 5514 5516 5532 5533 5549 5550 5566 5570 5578 5585 5593 5602
5657 5646 5633 5621 5607 5589 5570 5549 5534 5514 5495 5482 5468 5457 5448 5439 5433 5428 5426 5418 5413 5410 5410 5415 5428 5435 5443 5444 5452 5461 5473 5482 5490 5496 5498 5516 5516 5529 5546 5552 5559 5564 5571 5580 5590
5645 5633 5619 5605 5588 5570 5549 5532 5510 5494 5477 5465 5454 5447 5441 5435 5431 5425 5421 5418 5413 5408 5404 5408 5423 5430 5433 5437 5441 5449 5460 5470 5482 5487 5500 5510 5506 5519 5543 5545 5548 5553 5562 5569 5580
5633 5621 5606 5589 5570 5549 5530 5512 5492 5475 5461 5451 5445 5440 5438 5434 5428 5423 5420 5414 5409 5405 5401 5403 5415 5420 5424 5431 5437 5446 5447 5470 5480 5488 5495 5501 5510 5521 5525 5531 5537 5545 5555 5562 5567
5622 5607 5591 5573 5553 5532 5512 5493 5477 5463 5454 5448 5441 5438 5433 5429 5425 5421 5416 5413 5408 5406 5403 5404 5409 5415 5421 5426 5435 5436 5450 5459 5468 5482 5486 5495 5507 5515 5518 5523 5531 5536 5546 5553 5559
5609 5593 5576 5556 5536 5518 5498 5480 5467 5455 5447 5444 5440 5435 5431 5427 5423 5419 5415 5412 5406 5404 5402 5400 5405 5413 5418 5423 5431 5436 5442 5451 5463 5476 5477 5488 5502 5508 5511 5516 5520 5527 5538 5545 5551
5598 5582 5560 5540 5525 5500 5482 5466 5457 5450 5445 5442 5437 5433 5428 5424 5420 5417 5413 5409 5404 5400 5398 5397 5401 5409 5416 5420 5425 5430 5438 5445 5455 5467 5477 5486 5495 5499 5503 5511 5516 5525 5529 5534 5539
5587 5569 5549 5525 5508 5491 5476 5463 5450 5444 5441 5437 5433 5430 5426 5422 5417 5414 5410 5406 5401 5399 5396 5395 5399 5405 5411 5419 5421 5428 5434 5441 5452 5464 5474 5483 5492 5496 5503 5510 5513 5517 5521 5525 5530
5572 5556 5540 5516 5493 5474 5460 5454 5448 5443 5438 5434 5430 5427 5422 5419 5416 5408 5405 5403 5400 5397 5396 5395 5399 5405 5411 5413 5418 5426 5432 5442 5450 5460 5469 5481 5489 5495 5500 5503 5508 5511 5515 5520 5525
5559 5541 5519 5504 5489 5471 5456 5447 5442 5437 5435 5430 5427 5423 5418 5412 5408 5405 5402 5398 5397 5393 5393 5394 5399 5405 5411 5414 5418 5424 5434 5443 5451 5460 5469 5475 5481 5485 5491 5496 5504 5508 5513 5516 5521
5547 5531 5514 5494 5477 5461 5451 5447 5439 5436 5430 5428 5423 5420 5416 5410 5405 5398 5396 5394 5391 5392 5392 5393 5399 5405 5414 5417 5423 5430 5438 5444 5451 5458 5465 5471 5477 5481 5486 5492 5497 5502 5508 5512 5517
5530 5516 5500 5486 5471 5456 5450 5443 5437 5431 5431 5425 5420 5415 5412 5406 5400 5396 5393 5390 5389 5390 5391 5392 5398 5406 5417 5422 5426 5433 5438 5443 5449 5457 5460 5468 5475 5480 5483 5489 5493 5496 5500 5507 5513